SCP
0 0 0 0 0 0 0 0 0 0 0 0 0 0 0 0 0 0 0 0 0 0 0 0 0 0 0 0 0 0 0 0 0 0 0 0 0 0 0 0 0 0 0 0 0 0 0 0 0
0 0 0 0 0 0 0 0 0 0 0 0 0 0 0 0 0 0 0 0 0 0 0 0 0 0 0 0 0 0 0 0 0 0 0 0 0 0 0 0 0 0 0 0 0 0 0 0 0
0 0 0 0 0 0 0 0 0 0 0 0 0 0 0 -0 0 0 0 0 0 0 0 0 0 0 0 0 0 0 0 0 0 0 0 0 0 0 0 0 0 0 0 0 0 0 0 0 0
0 0 0 0 0 0 0 0 0 0 0 0 0 0 0 0 0 0 0 0 0 0 0 0 0 0 0 0 0 0 0 0 0 0 0 0 0 0 0 0 0 0 0 0 0 0 0 0 0
0 0 0 0 0 0 0 0 0 0 0 0 0 0 0 0 0 0 0 0 0 0 0 0 0 0 0 0 0 0 0 0 0 0 0 0 0 0 0 0 0 0 0 0 0 0 0 0 0
0 0 0 0 0 0 0 0 0 0 0 0 0 0 0 0 0 0 0 0 0 0 0 0 0 0 0 0 0 0 0 0 0 0 0 0 0 0 0 0 0 0 0 0 0 0 0 0 0
0 0 0 0 0 0 0 0 0 0 0 0 0 0 0 0 0 0 0 0 0 0 0 0 0 0 0 0 0 0 0 0 0 0 0 0 0 0 0 0 0 0 0 0 0 0 0 0 0
0 0 0 0 0 0 0 0 0 0 0 0 0 0 0 0 0 0 0 0 0 0 0 0 0 0 0 0 0 0 0 0 0 0 0 0 0 0 0 0 0 0 0 0 0 0 0 0 0
0 0 0 0 0 0 0 0 0 0 0 0 0 0 0 0 0 0 0 0 0 0 0 0 0 0 0 0 0 0 0 0 0 0 0 0 0 0 0 0 0 0 0 0 0 0 0 0 0
0 0 0 0 0 0 0 0 0 0 0 0 0 0 0 0 0 0 0 0 0 0 0 0 0 0 0 0 0 0 0 0 0 0 0 0 0 0 0 0 0 0 0 0 0 0 0 0 0
0 0 0 0 0 0 0 0 0 0 0 0 0 0 0 0 0 0 0 0 0 0 0 0 0 0 0 0 0 0 0 0 0 0 0 0 0 0 0 0 0 0 0 0 0 0 0 0 0
0 0 0 0 0 0 0 0 0 0 0 0 0 0 0 0 0 0 0 0 0 0 0 0 0 0 0 0 0 0 0 0 0 0 0 0 0 0 0 0 0 0 0 0 0 0 0 0 0
0 0 0 0 0 0 0 0 0 0 0 0 0 0 0 0 0 0 0 0 0 0 0 0 0 0 0 0 0 0 0 0 0 0 0 0 0 0 0 0 0 0 0 0 0 0 0 0 0
0 0 0 0 0 0 0 0 0 0 0 0 0 0 0 0 0 0 0 0 0 0 0 0 0 0 0 0 0 0 0 0 0 0 0 0 0 0 0 0 0 0 0 0 0 0 0 0 0
0 0 0 0 0 0 0 0 0 0 0 0 0 0 0 0 0 0 0 0 0 0 0 0 0 0 0 0 0 0 0 0 0 0 0 0 0 0 0 0 0 0 0 0 0 0 0 0 0
0 0 0 0 0 0 0 0 0 0 0 0 0 0 0 0 0 0 0 0 0 0 0 0 0 0 0 0 0 0 0 0 0 0 0 0 0 0 0 0 0 0 0 0 0 0 0 0 0
0 0 0 0 0 0 0 0 0 0 0 0 0 0 0 0 0 0 0 0 0 0 0 0 0 0 0 0 0 0 0 0 0 0 0 0 0 0 0 0 0 0 0 0 0 0 0 0 0
0 0 0 0 0 0 0 0 0 0 0 0 0 0 0 0 0 0 0 0 0 0 0 0 0 0 0 0 0 0 0 0 0 0 0 0 0 0 0 0 0 0 0 0 0 0 0 0 0
0 0 0 0 0 0 0 0 0 0 0 0 0 0 0 0 0 0 0 0 0 0 0 0 0 0 0 0 0 0 0 0 0 0 0 0 0 0 0 0 0 0 0 0 0 0 0 0 0
0 0 0 0 0 0 0 0 0 0 0 0 0 0 0 0 0 0 0 0 0 0 0 0 0 0 0 0 0 0 0 0 0 0 0 0 0 0 0 0 0 0 0 0 0 0 0 0 0
0 0 0 0 0 0 0 0 0 0 0 0 0 0 0 0 0 0 0 0 0 0 0 0 0 0 0 0 0 0 0 0 0 0 0 0 0 0 0 0 0 0 0 0 0 0 0 0 0
0 0 0 0 0 0 0 0 0 0 0 0 0 0 0 0 0 0 0 0 0 0 0 0 0 0 0 0 0 0 0 0 0 0 0 0 0 0 0 0 0 0 0 0 0 0 0 0 0
0 0 0 0 0 0 0 0 0 0 0 0 0 0 0 0 0 0 0 0 0 0 0 0 0 0 0 0 0 0 0 0 0 0 0 0 0 0 0 0 0 0 0 0 0 0 0 0 0
0 0 0 0 0 0 0 0 0 0 0 0 0 0 0 0 0 0 0 0 0 0 0 0 0 0 0 0 0 0 0 0 0 0 0 0 0 0 0 0 0 0 0 0 0 0 0 0 0
0 0 0 0 0 0 0 0 0 0 0 0 0 0 0 0 0 0 0 0 0 0 0 0 0 0 0 0 0 0 0 0 0 0 0 0 0 0 0 0 0 0 0 0 0 0 0 0 0
0 0 0 0 0 0 0 0 0 0 0 0 0 0 0 0 0 0 0 0 0 0 0 0 0 0 0 0 0 0 0 0 0 0 0 0 0 0 0 0 0 0 0 0 0 0 0 0 0
0 0 0 0 0 0 0 0 0 0 0 0 0 0 0 0 0 0 0 0 0 0 0 0 0 0 0 0 0 0 0 0 0 0 0 0 0 0 0 0 0 0 0 0 0 0 0 0 0
0 0 0 0 0 0 0 0 0 0 0 0 0 0 0 0 0 0 0 0 0 0 0 0 0 0 0 0 0 0 0 0 0 0 0 0 0 0 0 0 0 0 0 0 0 0 0 0 0
0 0 0 0 0 0 0 0 0 0 0 0 0 0 0 0 0 0 0 0 0 0 0 0 0 0 0 0 0 0 0 0 0 0 0 0 0 0 0 0 0 0 0 0 0 0 0 0 0
0 0 0 0 0 0 0 0 0 0 0 0 0 0 0 0 0 0 0 0 0 0 0 0 0 0 0 0 0 0 0 0 0 0 0 0 0 0 0 0 0 0 0 0 0 0 0 0 0
Wind_Speed
6 3 2 4 6 5 1 3 4 2 1 1 4 9 9 5 3 3 2 10 13 13 11 14 17 17 16 16 15 15 14 13 13 13 13 12 12 12 12 12 13 13 13 13 13 13 13 13 12
2 2 4 5 5 2 3 2 4 4 5 4 5 6 6 2 2 6 6 11 16 14 11 12 17 17 16 16 16 15 14 13 13 13 12 12 12 12 12 12 12 12 12 12 12 12 12 12 12
2 2 4 4 3 4 4 4 5 4 3 3 4 4 6 6 5 8 8 16 14 12 10 12 18 18 17 16 16 15 14 14 13 13 12 12 11 11 11 11 11 11 11 11 11 11 11 11 11
3 5 5 4 2 5 7 7 5 5 2 3 5 5 2 3 7 8 14 16 15 11 9 12 19 18 17 17 16 15 15 14 13 13 12 12 11 11 10 10 10 10 10 10 10 10 10 9 9
4 4 3 1 3 3 4 6 6 6 4 3 6 5 1 4 3 12 17 17 16 12 9 12 18 18 18 17 16 16 15 14 13 13 12 11 11 11 10 9 9 8 8 8 8 8 8 8 8
4 4 3 2 3 3 3 4 4 4 3 3 6 5 1 1 9 13 14 15 15 14 12 11 19 18 18 17 17 16 16 15 14 13 12 11 11 10 9 9 8 7 7 7 7 6 6 6 6
4 3 2 3 3 3 4 3 6 5 3 4 7 6 2 3 7 10 11 11 12 13 11 9 10 13 17 17 17 16 16 15 14 13 12 11 10 10 9 8 7 6 6 5 5 4 4 4 4
5 4 1 2 3 4 3 2 4 6 4 3 7 9 7 8 7 7 8 9 10 10 10 9 8 8 8 10 15 15 15 15 14 13 12 10 10 9 8 7 6 5 4 3 2 2 2 3 4
4 4 2 3 3 3 1 1 0 3 3 2 3 7 7 11 10 10 8 7 9 10 9 9 9 8 8 8 11 12 13 13 12 10 11 8 4 4 4 5 6 5 3 2 0 1 2 3 4
4 3 5 3 2 2 1 1 1 2 2 1 2 2 5 12 13 13 12 13 13 14 12 10 10 10 8 8 6 5 6 7 6 5 6 4 3 3 4 5 6 5 3 2 3 3 3 3 2
4 6 5 3 3 2 1 1 1 4 3 5 6 6 9 10 11 13 14 15 16 15 14 13 12 11 10 6 6 4 3 4 5 6 6 4 3 2 2 2 2 2 2 1 3 3 2 2 2
3 4 4 4 3 2 2 1 1 4 7 6 7 11 12 12 14 15 15 13 11 13 15 14 13 12 11 8 7 6 5 4 4 5 6 5 3 3 3 2 2 2 1 1 1 1 2 2 2
4 5 4 5 4 3 3 3 3 6 7 4 4 9 13 14 14 13 12 11 11 14 15 15 14 14 12 9 7 7 6 6 6 5 6 6 4 4 3 2 2 2 2 2 1 0 1 1 2
5 4 4 5 5 3 4 4 3 8 5 3 5 10 13 14 14 11 9 10 12 14 16 15 15 15 13 11 8 8 7 6 6 6 7 7 5 5 4 3 2 2 2 2 2 1 0 1 1
3 2 4 4 5 4 2 6 8 10 4 5 7 9 11 13 12 13 14 14 15 15 15 16 16 15 15 13 11 8 7 7 7 6 7 7 6 6 5 3 3 2 2 2 1 1 1 1 1
1 1 4 6 4 4 5 10 11 8 5 8 8 8 9 11 12 14 14 14 13 13 14 16 14 15 15 12 10 8 8 8 7 6 6 7 7 7 5 4 3 3 2 2 2 1 1 1 1
0 3 5 5 4 5 6 9 10 6 5 8 9 9 9 10 11 12 13 14 14 15 16 16 14 16 15 12 10 8 8 8 7 6 6 7 7 7 5 4 3 3 3 2 2 1 1 0 1
6 5 4 6 4 5 7 10 11 7 6 8 9 8 8 9 12 11 12 12 13 14 15 15 14 14 12 9 7 6 6 6 6 6 7 8 7 7 6 4 4 4 3 2 2 1 1 0 1
6 5 6 6 4 4 8 12 13 9 6 7 8 8 8 10 10 8 8 9 9 10 12 14 14 13 11 9 9 8 7 6 6 6 8 8 8 7 6 4 4 4 3 3 3 2 1 0 1
6 6 6 5 3 4 7 11 10 8 7 8 9 9 9 8 6 5 5 7 10 12 13 13 14 14 14 11 9 6 6 5 5 5 6 8 8 8 7 6 5 5 4 3 3 3 2 0 1
10 9 8 5 3 3 3 8 7 7 5 6 6 7 7 8 8 6 6 7 8 10 13 12 13 13 13 11 7 5 4 3 3 5 5 7 8 7 7 7 6 5 5 4 4 4 4 2 0
12 9 8 6 2 4 2 6 8 6 6 7 7 6 6 6 6 6 6 7 8 10 9 10 11 11 12 12 12 12 9 8 8 6 5 6 7 7 7 7 7 6 5 5 4 4 3 4 2
7 6 7 5 4 4 3 5 10 4 7 9 8 8 7 6 7 7 7 8 7 7 8 8 9 10 10 12 13 13 9 6 4 5 7 6 6 6 7 7 7 6 5 5 5 4 4 4 4
6 4 2 2 2 7 8 7 9 7 10 8 7 7 7 6 5 5 5 4 4 5 6 7 9 9 10 11 12 12 11 9 8 7 8 6 4 5 6 7 7 7 5 6 5 5 5 4 4
7 7 2 2 3 9 5 7 12 10 10 10 9 8 7 6 5 5 5 6 6 6 7 7 9 9 10 11 11 11 12 12 12 10 9 8 5 5 7 7 7 6 6 6 5 5 5 5 4
10 12 9 8 7 5 4 10 11 9 7 7 7 7 6 6 5 6 7 7 7 7 7 8 9 9 10 11 10 10 10 9 8 9 8 9 7 7 7 7 7 7 7 6 5 4 4 4 5
10 9 7 5 3 3 6 7 9 3 4 5 6 6 7 7 6 6 6 6 6 7 8 9 9 8 9 10 9 9 9 9 8 8 7 7 6 5 7 7 7 7 7 6 6 4 4 4 4
10 10 6 6 7 6 6 6 7 6 8 8 8 9 9 7 6 6 5 6 6 6 6 6 7 8 8 9 9 8 9 9 8 8 8 7 7 7 7 7 7 7 6 6 5 4 4 4 4
8 9 8 7 6 7 5 9 9 12 12 12 12 10 9 8 7 7 6 5 5 4 5 6 6 6 7 8 8 7 8 8 8 8 8 8 7 7 8 8 7 7 6 6 5 5 5 5 4
9 10 11 10 8 7 5 10 6 9 9 9 10 9 8 8 7 6 5 4 4 5 5 6 6 7 7 7 7 7 7 7 7 7 7 7 8 7 8 7 7 7 6 6 6 6 6 6 5
Wind_Direction
331 349 74 58 54 51 251 243 176 150 104 114 101 103 111 117 146 161 152 144 143 149 158 154 152 148 144 139 135 131 125 120 115 111 106 102 99 95 93 90 86 82 78 76 75 74 73 72 71
346 18 60 60 84 87 274 240 154 166 164 134 98 99 98 106 143 132 133 155 148 151 154 153 153 149 147 143 140 137 131 127 122 118 112 107 104 99 96 92 89 86 82 80 77 76 74 72 71
339 62 79 74 122 182 198 209 169 174 166 117 88 90 137 160 165 167 166 151 146 150 152 156 155 153 150 148 145 141 138 134 129 125 119 112 108 104 100 96 92 88 85 82 79 77 74 72 70
52 45 56 73 246 225 185 204 178 144 129 101 108 93 129 174 179 174 148 147 146 151 152 159 158 157 155 152 148 146 143 139 135 130 125 119 113 109 105 101 97 94 90 85 81 77 73 70 68
62 71 58 2 259 243 196 195 170 147 160 139 119 123 138 333 146 141 147 151 151 154 156 162 161 160 158 155 152 150 147 144 140 136 131 126 120 116 112 108 105 100 94 88 83 78 74 69 62
59 70 90 239 250 243 226 194 154 146 169 144 119 126 183 54 137 150 154 154 155 156 159 164 165 162 161 159 157 155 153 149 146 143 139 134 129 126 123 118 112 104 96 90 84 76 71 63 55
110 106 185 220 229 243 233 178 143 146 162 176 138 127 180 198 173 154 151 149 153 157 159 163 164 164 165 163 162 161 158 154 152 150 147 142 139 137 135 131 125 115 104 95 86 76 63 48 33
130 109 254 241 212 233 235 154 148 146 179 169 131 146 193 204 177 140 136 144 152 159 162 162 159 159 161 163 166 164 163 161 159 156 152 150 151 148 148 146 145 139 131 119 97 67 38 12 351
101 89 229 238 208 230 245 104 85 152 129 98 132 178 200 156 144 133 135 146 161 167 170 166 161 160 158 160 169 166 166 167 164 159 157 153 145 144 156 168 170 166 165 169 208 322 335 336 326
110 162 223 226 209 207 255 136 182 109 112 91 41 33 118 141 154 159 165 170 174 177 179 174 170 166 163 168 164 162 164 165 159 157 158 151 154 168 177 196 196 195 205 238 269 296 319 339 330
167 194 221 243 233 207 223 261 198 146 212 206 193 178 151 160 170 177 180 180 182 179 179 180 177 172 169 168 162 163 160 159 162 166 165 160 162 177 187 193 215 225 246 275 296 319 334 324 301
201 231 214 225 216 186 208 218 249 196 220 216 194 172 168 176 185 189 189 188 179 178 184 181 180 177 176 171 170 169 167 169 172 177 172 164 166 177 187 192 204 209 217 232 261 289 304 312 306
225 245 241 232 221 211 208 224 239 248 247 249 180 167 181 188 195 200 195 187 178 183 186 184 182 180 178 174 176 176 176 177 178 178 177 172 172 179 185 196 199 201 194 196 207 263 319 333 336
221 228 248 243 234 233 228 258 244 254 246 234 185 186 197 199 201 200 197 194 192 189 187 184 184 183 178 178 179 179 179 178 177 180 182 176 175 177 179 185 186 190 192 186 170 170 125 355 358
209 243 290 255 219 222 200 276 243 247 251 239 228 212 209 213 209 206 203 201 198 194 187 184 185 181 180 180 180 178 179 176 179 183 182 178 176 176 173 173 180 190 183 167 134 111 77 34 8
110 175 255 266 212 195 168 256 260 255 236 245 240 232 225 225 218 216 211 206 200 191 188 186 183 181 182 181 178 177 177 176 180 180 179 180 179 175 167 168 181 177 159 144 135 116 76 14 349
206 209 230 269 222 186 189 244 262 258 222 242 245 239 234 236 235 227 217 209 200 193 187 185 182 181 182 179 175 174 174 177 177 176 178 182 181 174 165 171 177 163 148 147 148 118 127 330 315
203 206 222 231 240 188 216 246 266 272 236 242 247 245 242 240 240 231 219 209 200 193 186 183 181 180 176 171 164 165 171 177 176 177 182 180 179 174 165 167 171 159 149 150 142 132 104 154 292
186 194 227 240 236 198 233 250 261 264 253 248 249 246 244 245 249 238 216 200 187 183 183 182 179 176 171 173 174 175 180 180 179 182 183 181 179 174 169 167 166 161 163 169 161 143 123 22 17
217 229 243 267 260 220 251 261 264 258 244 234 235 240 240 249 257 237 208 184 182 182 183 182 182 178 179 181 179 175 166 172 178 179 182 184 180 176 174 170 169 168 161 160 160 146 139 122 82
220 217 224 237 310 320 306 296 278 272 253 251 243 238 238 232 231 225 205 192 182 184 185 185 184 181 181 171 154 135 125 127 160 181 186 188 181 178 173 174 170 170 166 172 177 163 158 171 201
228 216 206 214 226 269 232 280 277 265 273 261 254 247 238 231 222 214 202 193 191 193 185 182 181 179 177 168 169 169 176 183 187 179 181 182 182 178 175 174 172 171 170 174 181 172 165 157 180
208 194 196 206 206 258 246 245 273 265 254 256 250 242 234 228 214 210 205 198 193 184 179 179 175 178 176 176 177 179 183 180 161 160 171 180 184 184 180 175 173 175 176 178 176 170 174 170 172
161 110 88 60 125 248 224 211 267 231 222 234 241 234 225 220 215 212 204 182 177 171 171 172 174 180 178 178 180 183 181 169 164 172 179 183 184 188 188 180 178 179 178 181 183 181 181 183 180
155 135 146 218 227 244 207 209 247 235 223 213 216 219 218 212 201 197 188 182 181 177 177 176 177 181 181 180 183 186 183 179 182 182 184 183 185 193 197 186 184 183 185 183 180 182 190 187 188
186 169 177 192 210 253 213 226 248 246 232 221 212 207 204 205 206 203 201 194 189 187 182 180 184 185 183 184 188 187 184 185 189 187 184 190 195 196 189 188 188 187 184 184 182 185 193 190 198
173 193 169 149 186 233 248 262 290 257 216 210 205 198 204 208 206 206 202 196 192 189 190 187 187 187 187 187 185 187 187 188 188 185 183 189 190 186 183 186 187 189 188 186 181 191 198 194 203
171 159 140 162 180 224 258 244 233 221 217 215 211 210 215 212 208 206 201 198 196 194 191 185 186 189 188 187 188 190 190 189 184 180 186 187 185 180 178 186 189 190 189 186 184 192 199 197 210
153 168 164 166 183 182 232 254 221 209 207 206 211 209 207 205 206 205 204 199 192 185 182 185 189 189 188 189 189 186 186 184 179 183 189 187 184 181 183 187 188 189 191 189 189 199 198 208 221
171 179 165 180 205 189 197 260 251 220 213 199 204 208 208 205 203 199 196 184 183 189 189 190 191 192 192 187 183 185 181 177 181 187 187 182 182 183 184 182 185 190 191 190 193 203 205 211 222